Weather History for Covington, KY

Change the Weather History Date:

Wednesday, January 15, 2014

  Actual Average Record
Temperature  
Mean Temperature 26 °F 31 °F  
Max Temperature 31 °F 38 °F 66 °F (1932)
Min Temperature 20 °F 23 °F -11 °F (1972)
Degree Days  
Heating Degree Days 39 34  
Month to date heating degree days 543 510  
Since 1 July heating degree days 2494 2429  
Cooling Degree Days 0 0  
Month to date cooling degree days 0 0  
Year to date cooling degree days 0 0  
Moisture  
Dew Point 19 °F    
Average Humidity 77    
Maximum Humidity 91    
Minimum Humidity 63    
Precipitation  
Precipitation 0.01 in 0.10 in 1.46 in (1885)
Month to date precipitation 2.14 1.48  
Year to date precipitation 2.14 1.48  
Snow  
Snow 0.20 in 0.20 in 3.00 in (1918)
Month to date snowfall 5.9 2.9  
Since 1 July snowfall 18.7 8.5  
Snow Depth 0.00 in    
Sea Level Pressure  
Sea Level Pressure 30.04 in    
Wind  
Wind Speed 7 mph (West)    
Max Wind Speed 21 mph    
Max Gust Speed 26 mph    
Visibility 7 miles    
Events Snow    
T = Trace of Precipitation, MM = Missing Value Source: NWS Daily Summary

Daily Weather History Graph

Daily Weather History Graph

Search for Another Location

Airport:

Trip Planner

Search our weather history database for the weather conditions in past years. The results will help you decide how hot, cold, wet, or windy it might be!

Date:

Astronomy

Jan. 15, 2014 Rise Set
Actual Time 7:56 AM EST 5:40 PM EST
Civil Twilight 7:26 AM EST 6:09 PM EST
Nautical Twilight 6:53 AM EST 6:42 PM EST
Astronomical Twilight 6:21 AM EST 7:14 PM EST
Moon 5:37 PM EST (1/15) 7:12 AM EST (1/15)
Length of Visible Light 10h 42m
Length of Day
9h 44m
Full, 100% of the Moon is Illuminated
Jan 15
Full
Jan 15
Full
Jan 24
Last Quarter
Jan 30
New
Feb 6
First Quarter

Hourly Weather History & Observations

Time (EST) Temp. Windchill Dew Point Humidity Pressure Visibility Wind Dir Wind Speed Gust Speed Precip Events Conditions
12:52 AM 30.0 °F 18.3 °F 19.0 °F 64% 29.95 in 10.0 mi West 17.3 mph - N/A   Scattered Clouds
1:52 AM 28.0 °F 20.0 °F 18.0 °F 66% 29.95 in 10.0 mi West 8.1 mph - N/A   Partly Cloudy
2:52 AM 27.0 °F 23.0 °F 18.0 °F 69% 29.96 in 10.0 mi WSW 3.5 mph - N/A   Scattered Clouds
3:52 AM 28.0 °F 22.8 °F 19.0 °F 69% 29.97 in 10.0 mi WSW 4.6 mph - N/A   Mostly Cloudy
4:52 AM 28.0 °F 21.7 °F 19.0 °F 69% 29.97 in 10.0 mi WSW 5.8 mph - N/A   Overcast
5:52 AM 28.0 °F 22.8 °F 19.9 °F 72% 29.98 in 10.0 mi WSW 4.6 mph - N/A   Overcast
6:52 AM 28.0 °F 20.8 °F 17.1 °F 63% 30.00 in 10.0 mi West 6.9 mph - N/A   Overcast
7:32 AM 26.6 °F 17.5 °F 21.2 °F 80% 29.99 in 4.0 mi West 9.2 mph - 0.00 in Snow Light Snow
7:52 AM 27.0 °F 18.0 °F 21.0 °F 78% 30.02 in 5.0 mi WNW 9.2 mph - 0.00 in Snow Light Snow
8:12 AM 26.6 °F 16.8 °F 21.2 °F 80% 30.01 in 2.5 mi WNW 10.4 mph - 0.00 in Snow Light Snow
8:25 AM 26.6 °F 17.5 °F 21.2 °F 80% 30.02 in 4.0 mi West 9.2 mph - 0.00 in Snow Light Snow
8:34 AM 26.6 °F 18.2 °F 19.4 °F 74% 30.02 in 7.0 mi West 8.1 mph - 0.00 in Snow Light Snow
8:52 AM 26.1 °F 18.4 °F 19.9 °F 78% 30.04 in 8.0 mi West 6.9 mph - 0.00 in Snow Light Snow
9:52 AM 27.0 °F 18.7 °F 17.1 °F 66% 30.07 in 10.0 mi WNW 8.1 mph - 0.00 in   Overcast
10:52 AM 27.0 °F 18.7 °F 17.1 °F 66% 30.08 in 7.0 mi WNW 8.1 mph - 0.00 in Snow Light Snow
12:52 PM 27.0 °F 17.3 °F 18.0 °F 69% 30.06 in 5.0 mi West 10.4 mph - 0.00 in Snow Light Snow
1:52 PM 28.0 °F 19.3 °F 16.0 °F 61% 30.05 in 10.0 mi West 9.2 mph - 0.00 in   Overcast
2:38 PM 26.6 °F 17.5 °F 17.6 °F 69% 30.03 in 8.0 mi NW 9.2 mph - 0.00 in Snow Light Snow
2:52 PM 26.1 °F 16.8 °F 18.0 °F 71% 30.06 in 6.0 mi WNW 9.2 mph - 0.00 in Snow Light Snow
3:02 PM 26.6 °F 18.2 °F 19.4 °F 74% 30.03 in 3.0 mi WNW 8.1 mph - 0.00 in Snow Light Snow
3:07 PM 26.6 °F 17.5 °F 19.4 °F 74% 30.03 in 2.0 mi WNW 9.2 mph - 0.00 in Snow Light Snow
3:52 PM 25.0 °F 14.8 °F 19.0 °F 78% 30.07 in 2.5 mi West 10.4 mph - 0.00 in Snow Light Snow
4:52 PM 25.0 °F 15.5 °F 19.9 °F 81% 30.08 in 2.5 mi West 9.2 mph - 0.00 in Snow Light Snow
5:52 PM 25.0 °F 17.1 °F 19.0 °F 78% 30.09 in 7.0 mi West 6.9 mph - 0.00 in Snow Light Snow
6:52 PM 25.0 °F 14.8 °F 19.0 °F 78% 30.11 in 7.0 mi West 10.4 mph - 0.00 in Snow Light Snow
7:52 PM 23.0 °F 15.8 °F 17.1 °F 78% 30.11 in 10.0 mi West 5.8 mph - 0.00 in   Overcast
8:52 PM 23.0 °F 18.4 °F 17.1 °F 78% 30.10 in 9.0 mi WSW 3.5 mph - 0.00 in Snow Light Snow
9:52 PM 21.0 °F - 17.1 °F 85% 30.10 in 10.0 mi Calm Calm - 0.00 in   Scattered Clouds
10:52 PM 19.9 °F 14.9 °F 17.1 °F 89% 30.09 in 9.0 mi SW 3.5 mph - N/A   Scattered Clouds
11:52 PM 21.0 °F 12.4 °F 16.0 °F 81% 30.07 in 10.0 mi West 6.9 mph - N/A   Overcast